[[{"header":{"parameterUnit":"m.s-1","parameterCategory":1,"la1":30.2992,"la2":30.254,"lo1":-89.0895,"lo2":-89.0443,"dy":0.0025,"dx":0.0025,"nx":19,"ny":19,"refTime":"2026-04-22T21:00:00:Z","depth":0,"parameterNumber":2,"parameterNumberName":"U-component_of_WINDS"},"data":[0,0,0,-2.662,-2.6623,-2.6761,-2.6762,-2.6937,-2.6939,0,0,0,0,0,0,0,0,0,0,0,-2.6578,-2.6579,-2.662,-2.6623,-2.6761,-2.6762,-2.6937,-2.6939,0,0,0,0,0,0,0,0,0,0,0,-2.6578,-2.6579,-2.658,-2.6624,-2.6761,-2.6762,-2.6936,-2.6833,0,0,0,0,0,0,0,0,0,0,-2.6699,-2.6659,-2.6579,-2.658,-2.6624,-2.6761,-2.6762,-2.6828,-2.6839,-2.6874,0,-2.6904,0,-2.6924,-2.695,-2.6951,0,0,0,-2.6624,-2.665,-2.6688,-2.6581,-2.6626,-2.6761,-2.6699,-2.6834,-2.6847,-2.6889,-2.6907,-2.6913,-2.6927,-2.6951,-2.6952,-2.7147,-2.7148,0,0,-2.6616,-2.6603,-2.6679,-2.6696,-2.6674,-2.6695,-2.6703,-2.6842,-2.686,-2.6907,-2.6917,-2.693,-2.6952,-2.6954,-2.7147,-2.7148,0,0,0,-2.6594,-2.6597,-2.6632,-2.6689,-2.6714,-2.6699,-2.6709,-2.6854,-2.6867,-2.6919,-2.6932,-2.6953,-2.6956,-2.7146,-2.7147,-2.7175,0,0,0,-2.6589,-2.6584,-2.6628,-2.6621,-2.6711,-2.6786,-2.6718,-2.6857,-2.6873,-2.6931,-2.6954,-2.6957,-2.7145,-2.7146,-2.7172,-2.7191,0,0,0,-2.6569,-2.6582,-2.6601,-2.662,-2.6679,-2.6784,-2.6804,-2.6861,-2.6881,-2.6951,-2.6958,-2.7144,-2.7146,-2.717,-2.7187,-2.7237,0,0,0,-2.6544,-2.6626,-2.6601,-2.6697,-2.6678,-2.68,-2.6803,-2.6896,-2.6959,-2.6954,-2.7145,-2.7147,-2.7169,-2.7184,-2.7234,-2.7276,-2.7293,0,0,-2.6639,-2.6636,-2.6694,-2.6676,-2.6799,-2.678,-2.6908,-2.698,-2.7,-2.7097,-2.7102,-2.7173,-2.7187,-2.7237,-2.7391,-2.7404,0,0,0,-2.6719,-2.676,-2.6796,-2.6855,-2.6911,-2.6961,-2.7014,-2.7041,-2.7124,-2.7047,-2.7206,-2.7215,-2.7245,-2.7265,-2.7276,-2.7302,-2.7156,-2.7156,-2.7156,-2.6833,-2.6853,-2.6949,-2.6986,-2.7043,-2.7097,-2.7146,-2.7191,-2.7196,-2.7233,-2.7261,-2.7353,-2.7376,-2.7385,-2.7412,-2.7286,-2.7286,-2.7286,-2.7286,-2.6973,-2.7033,-2.7037,-2.713,-2.7151,-2.7231,-2.7286,-2.7287,-2.7364,-2.7333,-2.736,-2.7324,-2.7398,-2.7423,-2.7289,-2.7288,-2.7288,-2.7288,-2.7288,-2.7049,-2.7081,-2.7112,-2.7198,-2.7263,-2.7298,-2.7372,-2.7389,-2.7405,-2.7433,-2.7464,-2.7464,-2.7465,-2.7447,-2.7447,-2.7447,-2.7448,-2.7448,-2.7448,-2.7115,-2.7149,-2.7208,-2.7274,-2.7313,-2.7368,-2.7422,-2.7462,-2.7511,-2.7517,-2.7518,-2.7518,-2.7402,-2.7372,-2.7453,-2.7452,-2.7451,-2.7451,-2.7451,-2.7248,-2.722,-2.7312,-2.7351,-2.743,-2.7492,-2.7513,-2.7592,-2.7628,-2.7663,-2.7658,-2.757,-2.7568,-2.756,-2.7535,-2.7654,-2.7654,-2.7654,-2.7654,-2.7311,-2.7312,-2.7409,-2.7471,-2.7534,-2.7561,-2.7664,-2.7707,-2.7748,-2.7771,-2.7756,-2.7725,-2.7716,-2.772,-2.7708,-2.7685,-2.7839,-2.784,-2.784,-2.7394,-2.7401,-2.7485,-2.7523,-2.7585,-2.7638,-2.7735,-2.7806,-2.7847,-2.7848,-2.7789,-2.7781,-2.7731,-2.7714,-2.7712,-2.7693,-2.7651,0,0]},{"header":{"parameterUnit":"m.s-1","parameterCategory":1,"la1":30.2992,"la2":30.254,"lo1":-89.0895,"lo2":-89.0443,"dy":0.0025,"dx":0.0025,"nx":19,"ny":19,"refTime":"2026-04-22T21:00:00:Z","depth":0,"parameterNumber":3,"parameterNumberName":"V-component_of_WINDS"},"data":[0,0,0,3.6935,3.6937,3.7011,3.7011,3.7117,3.7118,0,0,0,0,0,0,0,0,0,0,0,3.6922,3.6923,3.6935,3.6937,3.7011,3.7011,3.7117,3.7118,0,0,0,0,0,0,0,0,0,0,0,3.6922,3.6923,3.6924,3.6937,3.7011,3.7011,3.7116,3.7056,0,0,0,0,0,0,0,0,0,0,3.6982,3.6979,3.6923,3.6924,3.6938,3.7011,3.7011,3.7053,3.706,3.7089,0,3.7119,0,3.712,3.7126,3.7126,0,0,0,3.6929,3.6974,3.6986,3.6924,3.6939,3.7011,3.6975,3.7056,3.7064,3.7098,3.712,3.7124,3.7122,3.7127,3.7127,3.7323,3.7324,0,0,3.6925,3.694,3.6981,3.6991,3.6984,3.6973,3.6978,3.7061,3.7086,3.7121,3.7126,3.7124,3.7127,3.7128,3.7322,3.7323,0,0,0,3.6919,3.6937,3.6947,3.6987,3.7,3.6975,3.6981,3.7082,3.7084,3.7127,3.7125,3.7128,3.7129,3.7321,3.7322,3.7398,0,0,0,3.6916,3.6933,3.6945,3.6955,3.6999,3.7043,3.7,3.7078,3.7087,3.7125,3.7128,3.7131,3.7319,3.7322,3.7393,3.7431,0,0,0,3.6914,3.6933,3.6947,3.6956,3.6988,3.7041,3.7047,3.708,3.7086,3.7126,3.7131,3.7318,3.7321,3.7389,3.7424,3.7486,0,0,0,3.6916,3.7014,3.6949,3.7057,3.6988,3.7089,3.7047,3.7121,3.7164,3.7129,3.7319,3.7322,3.7387,3.7419,3.7481,3.754,3.7566,0,0,3.7047,3.703,3.7092,3.7036,3.7153,3.7076,3.7202,3.7228,3.7218,3.7288,3.7292,3.7395,3.7423,3.7485,3.7712,3.7733,0,0,0,3.7139,3.7184,3.7211,3.7254,3.7277,3.7299,3.7304,3.7313,3.7372,3.7258,3.7435,3.7451,3.7487,3.7514,3.7532,3.756,3.7336,3.7336,3.7335,3.7344,3.7327,3.7428,3.742,3.7462,3.7466,3.7497,3.751,3.748,3.7522,3.7542,3.7682,3.7714,3.7728,3.7758,3.7573,3.7573,3.7574,3.7574,3.7533,3.7593,3.7551,3.7634,3.7615,3.7683,3.769,3.7667,3.7726,3.7666,3.7696,3.7629,3.7751,3.7776,3.7579,3.7578,3.7578,3.7577,3.7577,3.7664,3.769,3.77,3.776,3.7807,3.7794,3.7854,3.7834,3.7815,3.7845,3.7863,3.7862,3.7856,3.7856,3.7856,3.7857,3.7857,3.7857,3.7858,3.7795,3.7805,3.7858,3.7891,3.7915,3.7944,3.7948,3.7971,3.799,3.797,3.797,3.7935,3.7768,3.7725,3.7865,3.7864,3.7863,3.7862,3.7862,3.799,3.7943,3.8026,3.805,3.8085,3.8132,3.8106,3.8154,3.8169,3.8198,3.8157,3.8037,3.8017,3.8003,3.7967,3.8162,3.8162,3.8162,3.8162,3.81,3.8088,3.8167,3.8207,3.8244,3.8229,3.832,3.8324,3.832,3.8328,3.8297,3.8249,3.8235,3.8223,3.8204,3.817,3.8412,3.8412,3.8412,3.8218,3.8209,3.8291,3.8288,3.8314,3.8336,3.842,3.8465,3.8451,3.8422,3.8333,3.8322,3.8244,3.822,3.8187,3.8158,3.8096,0,0]}]]